Location: The Saddle
(36.8333°N, 80.3417°W)
Time: 13:36:29
(UTC-04:00)

Courier 1B - Pass Details

Date: 21 September 2024
Orbit: 962 x 1208 km, 28.3° (Epoch: 06 October)

Event Time Altitude Azimuth Distance (km) Brightness Sun altitude
Rises 10:58:30 0° 207° (SSW) 3,635 10.6 41.9°
Reaches altitude 10° 11:02:29 10° 183° (S) 2,715 10.4 42.5°
Maximum altitude 11:05:47 14° 152° (SSE) 2,438 10.7 43.0°
Drops below altitude 10° 11:09:10 10° 122° (ESE) 2,783 10.9 43.5°
Sets 11:13:20 0° 99° (E) 3,788 11.1 44.0°
